Location: Dampvalley
(47.9094°N, 6.1967°E)
Time: 18:30:10
(UTC+00:00)

USA 267 - Pass Details

Date: 05 March 2021
Orbit: 1099 x 1108 km, 123.0° (Epoch: 20 March)

Event Time Altitude Azimuth Distance (km) Brightness Sun altitude
Rises 02:49:59 0° 56° (NE) 3,924 7.3 -32.8°
Reaches altitude 10° 02:52:29 10° 53° (NE) 2,964 6.4 -32.5°
Maximum altitude 02:58:55 63° 335° (NNW) 1,215 3.3 -31.6°
Enters shadow 02:58:58 63° 332° (NNW) 1,215 3.3 -31.5°
